SCP
0 0 0 0 0 0 0 0 0 0 0 0 0 0 0 0 0 0 0 0 0 0 0 0 0 0 0 0 0 0 0 0 0 0 0 0 0 0 0 0 0 0 0
0 0 0 0 0 0 0 0 0 0 0 0 0 0 0 0 0 0 0 0 0 0 0 0 0 0 0 0 0 0 0 0 0 0 0 0 0 0 0 0 0 0 0
0 0 0 0 0 0 0 0 0 0 0 0 0 0 0 0 0 0 0 0 0 0 0 0 0 0 0 0 0 0 0 0 0 0 0 0 0 0 0 0 0 0 0
0 0 0 0 0 0 0 0 0 0 0 0 0 0 0 0 0 0 0 0 0 0 0 0 0 0 0 0 0 0 0 0 0 0 0 0 0 0 0 0 0 0 0
0 0 0 0 0 0 0 0 0 0 0 0 0 0 0 0 0 0 0 0 0 0 0 0 0 0 0 0 0 0 0 0 0 0 0 0 0 0 0 0 0 0 0
0 0 0 0 0 0 0 0 0 0 0 0 0 0 0 0 0 0 0 0 0 0 0 0 0 0 0 0 0 0 0 0 0 0 0 0 0 0 0 0 0 0 0
0 0 0 0 0 0 0 0 0 0 0 0 0 0 0 0 0 0 0 0 0 0 0 0 0 0 0 0 0 0 0 0 0 0 0 0 0 0 0 0 0 0 0
0 0 0 0 0 0 0 0 0 0 0 0 0 0 0 0 0 0 0 0 0 0 0 0 0 0 0 0 0 0 0 0 0 0 0 0 0 0 0 0 0 0 0
0 0 0 0 0 0 0 0 0 0 0 0 0 0 0 0 0 0 0 0 0 0 0 0 0 0 0 0 0 0 0 0 0 0 0 0 0 0 0 0 0 0 0
0 0 0 0 0 0 0 0 0 0 0 0 0 0 0 0 0 0 0 0 0 0 0 0 0 0 0 0 0 0 0 0 0 0 0 0 0 0 0 0 0 0 0
0 0 0 0 0 0 0 0 0 0 0 0 0 0 0 0 0 0 0 0 0 0 0 0 0 0 0 0 0 0 0 0 0 0 0 0 0 0 0 0 0 0 0
0 0 0 0 0 0 0 0 0 0 0 0 0 0 0 0 0 0 0 0 0 0 0 0 0 0 0 0 0 0 0 0 0 0 0 0 0 0 0 0 0 0 0
0 0 0 0 0 0 0 0 0 0 0 0 0 0 0 0 0 0 0 0 0 0 0 0 0 0 0 0 0 0 0 0 0 0 0 0 0 0 0 0 0 0 0
0 0 0 0 0 0 0 0 0 0 0 0 0 0 0 0 0 0 0 0 0 0 0 0 0 0 0 0 0 0 0 0 0 0 0 0 0 0 0 0 0 0 0
0 0 0 0 0 0 0 0 0 0 0 0 0 0 0 0 0 0 0 0 0 0 0 0 0 0 0 0 0 0 0 0 0 0 0 0 0 0 0 0 0 0 0
0 0 0 0 0 0 0 0 0 0 0 0 0 0 0 0 0 0 0 0 0 0 0 0 0 0 0 0 0 0 0 0 0 0 0 0 0 0 0 0 0 0 0
0 0 0 0 0 0 0 0 0 0 0 0 0 0 0 0 0 0 0 0 0 0 0 0 0 0 0 0 0 0 0 0 0 0 0 0 0 0 0 0 0 0 0
0 0 0 0 0 0 0 0 0 0 0 0 0 0 0 0 0 0 0 0 0 0 0 0 0 0 0 0 0 0 0 0 0 0 0 0 0 0 0 0 0 0 0
0 0 0 0 0 0 0 0 0 0 0 0 0 0 0 0 0 0 0 0 0 0 0 0 0 0 0 0 0 0 0 0 0 0 0 0 0 0 0 0 0 0 0
0 0 0 0 0 0 0 0 0 0 0 0 0 0 0 0 0 0 0 0 0 0 0 0 0 0 0 0 0 0 0 0 0 0 0 0 0 0 0 0 0 0 0
0 0 0 0 0 0 0 0 0 0 0 0 0 0 0 0 0 0 0 0 0 0 0 0 0 0 0 0 0 0 0 0 0 0 0 0 0 0 0 0 0 0 0
0 0 0 0 0 0 0 0 0 0 0 0 0 0 0 0 0 0 0 0 0 0 0 0 0 0 0 0 0 0 0 0 0 0 0 0 0 0 0 0 0 0 0
0 0 0 0 0 0 0 0 0 0 0 0 0 0 0 0 0 0 0 0 0 0 0 0 0 0 0 0 0 0 0 0 0 0 0 0 0 0 0 0 0 0 0
0 0 0 0 0 0 0 0 0 0 0 0 0 0 0 0 0 0 0 0 0 0 0 0 0 0 0 0 0 0 0 0 0 0 0 0 0 0 0 0 0 0 0
0 0 0 0 0 0 0 0 0 0 0 0 0 0 0 0 0 0 0 0 0 0 0 0 0 0 0 0 0 0 0 0 0 0 0 0 0 0 0 0 0 0 0
0 0 0 0 0 0 0 0 0 0 0 0 0 0 0 0 0 0 0 0 0 0 0 0 0 0 0 0 0 0 0 0 0 0 0 0 0 0 0 0 0 0 0
Wind_Speed
3 3 3 3 4 4 4 5 5 5 6 7 8 9 10 10 9 8 8 8 8 8 8 8 10 9 8 7 7 8 9 10 17 12 6 6 8 10 10 11 11 14 14
4 4 4 4 4 5 6 6 6 7 7 7 8 8 10 10 10 10 11 10 9 10 10 9 11 8 10 8 8 10 10 10 13 17 8 6 10 9 11 12 12 12 11
4 4 5 5 6 6 7 7 7 8 8 8 8 10 10 10 10 11 11 12 11 11 11 11 11 10 11 9 10 10 10 10 11 14 13 7 8 6 8 9 10 9 9
4 4 6 7 7 7 8 8 8 8 9 10 10 11 11 11 12 12 12 13 13 13 12 12 12 11 13 11 10 11 10 11 11 12 12 7 7 5 6 8 7 8 9
4 5 6 7 7 7 8 9 9 9 10 11 12 12 12 11 11 12 12 13 14 14 14 13 13 14 18 16 12 10 10 11 11 12 13 8 7 6 7 6 10 7 11
4 5 6 7 8 8 9 10 11 12 12 13 14 15 16 14 22 29 24 16 15 16 17 16 14 14 16 26 28 26 22 16 14 14 13 14 12 10 9 9 10 9 11
4 5 6 6 8 9 11 12 13 14 15 17 17 17 18 21 29 31 31 22 19 18 18 17 16 14 15 14 20 27 25 27 29 20 18 19 15 9 11 13 12 12 11
4 4 4 6 8 10 12 14 15 15 16 17 18 18 20 22 30 32 32 23 20 21 20 19 19 18 16 18 16 17 18 18 21 17 17 18 14 10 12 15 15 15 10
4 5 6 7 8 11 13 15 15 15 16 16 17 17 18 21 28 32 32 19 18 22 21 20 20 19 26 31 23 20 20 19 24 29 30 28 29 27 18 11 12 11 13
5 7 8 7 7 11 14 15 14 14 16 17 17 16 18 18 26 31 31 15 17 18 18 19 22 24 29 32 22 19 21 20 16 15 19 23 22 22 26 18 15 14 10
6 8 9 9 10 12 13 12 13 14 15 15 17 16 16 18 23 28 29 16 15 16 16 15 15 28 32 33 30 21 24 23 16 16 15 14 13 13 14 15 15 15 15
6 9 9 9 10 10 10 12 12 13 15 15 14 15 12 14 18 22 28 28 26 19 17 15 17 30 33 34 28 27 32 28 15 14 14 14 13 12 12 13 15 16 15
6 8 9 9 9 9 10 12 11 11 11 12 12 13 13 12 15 26 28 30 31 22 17 26 31 35 34 26 29 34 27 17 15 15 15 13 11 11 10 10 12 13 14
7 9 9 9 9 9 9 9 10 10 11 12 13 14 14 13 13 12 13 15 21 21 18 22 31 34 30 27 23 21 15 14 15 14 12 10 8 9 10 10 11 10 11
8 9 9 9 9 9 9 9 12 12 14 17 14 14 16 15 18 29 25 17 15 17 19 15 14 13 13 13 13 13 12 13 14 13 11 10 10 10 11 10 11 10 11
9 9 8 8 8 9 10 12 19 22 27 29 29 26 19 26 34 35 35 35 35 34 24 14 14 13 13 13 12 12 12 12 12 11 10 10 11 10 10 9 9 11 11
7 9 8 8 9 10 10 11 14 18 25 27 27 29 28 31 33 33 33 32 31 28 16 13 13 12 12 12 12 12 12 12 11 10 10 10 10 9 9 9 10 10 10
7 8 8 8 8 9 10 11 11 13 15 16 20 27 30 31 31 31 30 25 15 13 10 12 13 12 12 12 12 12 12 11 11 11 10 10 9 9 9 9 10 10 10
7 6 6 7 8 8 9 10 11 12 12 13 13 17 21 26 27 25 23 11 12 12 12 12 12 12 12 11 11 11 11 11 12 11 10 9 8 8 8 8 9 11 9
5 9 9 7 7 8 8 9 10 11 12 12 12 13 14 14 12 14 12 10 11 12 13 13 12 11 10 10 10 10 10 10 11 10 9 7 6 6 7 8 8 9 8
5 6 8 7 6 7 8 8 9 10 11 11 11 15 23 13 12 13 12 11 11 12 13 13 12 10 8 7 8 9 10 9 8 7 5 4 4 4 4 5 7 7 7
4 5 5 6 6 7 7 8 8 9 10 12 12 14 20 11 10 10 11 11 11 11 12 12 11 9 8 7 6 6 5 5 5 3 2 1 2 3 4 5 6 6 8
4 5 5 5 6 7 7 6 7 8 9 10 11 11 11 10 10 11 11 11 11 11 11 11 10 10 9 7 6 5 4 3 3 2 1 2 3 4 4 6 7 8 8
4 4 5 5 6 6 6 7 7 8 9 9 9 10 10 11 11 12 11 11 11 11 11 11 11 14 16 11 8 7 6 6 5 5 5 5 5 5 5 6 7 8 9
3 4 4 5 5 6 6 7 7 8 8 8 9 9 10 10 11 11 11 11 12 12 13 12 11 12 15 15 12 10 12 13 10 7 6 6 7 8 8 8 8 9 9
3 4 4 4 4 5 5 6 7 8 8 8 8 8 9 10 10 10 10 11 12 11 12 11 15 16 16 13 13 14 13 13 13 12 8 7 8 8 8 8 10 10 10
Wind_Direction
251 260 277 283 285 288 288 286 288 294 302 306 308 310 311 311 311 309 303 300 294 290 285 278 273 268 264 258 247 245 246 245 263 270 243 221 220 228 230 224 223 222 222
248 254 263 270 274 275 273 273 273 276 277 278 282 286 289 292 294 295 296 297 291 288 284 278 275 272 265 261 256 252 250 244 255 268 260 235 228 223 224 224 223 222 220
257 264 274 278 279 278 278 280 279 278 279 278 276 276 277 278 279 280 281 284 282 279 277 274 274 269 269 263 257 258 256 253 251 260 263 241 235 220 225 229 222 219 216
275 278 281 284 285 286 287 288 286 284 284 284 281 278 277 277 276 276 277 277 276 275 272 269 269 264 265 264 262 259 257 257 255 258 262 246 235 216 213 221 223 214 218
294 292 289 294 298 299 300 299 298 296 293 293 291 288 285 281 279 281 280 277 276 276 274 269 267 263 261 265 265 262 255 257 257 258 261 251 228 209 217 202 223 214 222
306 300 305 311 314 316 316 316 313 310 307 304 298 296 292 289 291 293 293 287 281 278 277 274 271 267 264 271 272 270 264 258 257 255 259 254 246 223 216 213 217 210 227
313 313 324 333 331 330 327 323 317 314 309 305 301 300 297 295 297 297 297 295 285 278 275 275 273 269 267 269 273 274 272 267 262 257 255 255 252 229 217 221 217 215 221
320 329 347 344 333 327 323 317 313 310 306 303 301 300 296 295 299 300 299 297 291 282 275 272 272 272 268 272 272 268 264 261 260 259 257 259 254 239 223 224 221 226 226
327 336 341 337 327 321 313 309 307 305 301 299 296 297 296 298 301 301 297 291 285 285 282 277 273 272 272 273 273 270 269 265 266 260 255 256 257 254 241 229 223 220 228
334 329 326 323 315 307 303 302 300 298 296 296 295 296 295 294 296 298 297 289 284 283 282 280 277 274 272 272 268 265 265 264 261 261 258 259 258 257 250 235 224 224 223
326 318 314 310 301 295 293 294 295 294 294 293 292 291 288 288 292 295 295 291 286 286 284 283 281 282 280 277 272 265 263 265 261 256 254 250 247 244 242 235 227 225 225
318 310 301 292 289 291 287 290 290 290 292 291 291 291 289 289 290 292 293 291 290 287 285 285 283 284 283 281 278 272 273 271 262 255 250 247 243 240 236 231 228 228 229
305 294 289 286 282 284 285 291 292 289 289 292 293 293 293 288 286 290 291 289 288 284 278 279 281 283 283 282 278 277 276 271 261 254 249 245 240 237 231 227 226 227 231
294 295 296 296 294 291 289 290 290 290 289 289 290 291 291 289 286 284 278 280 280 278 277 275 277 278 277 274 274 274 268 264 260 253 249 248 240 232 228 223 223 219 223
295 298 302 299 295 296 292 287 288 280 280 289 290 291 295 295 290 293 294 290 282 276 277 269 264 263 261 259 260 260 261 260 258 250 246 245 241 236 230 220 216 214 214
303 306 305 303 300 299 299 298 296 298 299 299 299 299 297 297 301 303 302 300 299 295 291 279 275 270 268 267 264 261 261 261 260 253 244 242 240 235 228 216 209 209 210
286 297 300 300 301 301 301 301 303 307 306 306 308 309 308 309 311 312 312 311 308 306 297 288 282 276 272 269 266 263 263 265 264 260 251 245 240 233 223 213 205 204 205
282 288 290 291 295 296 297 297 298 300 305 308 312 314 317 318 317 318 321 323 315 310 292 286 281 275 270 266 264 264 263 264 264 260 255 246 237 228 220 209 201 199 197
289 291 288 289 293 294 296 297 297 297 299 302 307 314 318 318 321 325 331 322 309 305 300 293 286 277 269 264 261 260 261 262 263 260 255 246 234 224 217 205 197 192 188
283 292 301 299 299 299 300 301 303 305 307 308 311 315 315 318 326 326 327 317 312 308 306 301 294 285 273 264 261 261 261 261 262 260 251 239 226 217 208 195 190 186 184
288 296 300 299 295 297 301 303 305 307 309 311 311 313 327 332 323 320 322 323 321 318 316 314 310 303 291 279 267 261 260 262 261 258 248 230 210 197 184 177 175 169 161
290 296 296 295 298 301 302 302 305 307 309 311 314 319 329 330 322 324 325 325 324 321 320 320 321 318 309 299 292 280 273 273 272 259 234 199 160 143 139 143 145 146 145
292 297 300 298 298 301 304 303 306 308 312 314 316 322 327 329 330 330 330 329 329 329 331 333 336 340 339 334 330 326 323 323 331 355 86 93 99 110 120 130 135 137 141
293 296 299 302 304 306 309 311 311 314 316 318 320 323 327 329 330 332 333 334 334 336 339 342 345 349 357 1 2 4 12 21 26 41 64 80 85 93 100 108 114 123 128
291 292 295 296 301 305 308 310 312 315 318 319 322 325 327 329 332 334 336 338 339 341 345 348 352 355 358 5 11 18 30 38 41 46 56 70 80 85 92 97 102 108 112
287 289 289 291 295 299 303 308 311 314 316 317 319 321 324 327 330 332 335 340 342 342 346 349 352 356 1 6 15 28 39 47 49 51 57 69 77 83 88 93 98 101 105